User: anonymous
Location: Caltech
(34.1382°N, 118.1253°W)
Time: 13:14:04
(UTC-07:00)
Language:

Cosmos 1484 Rocket - Orbit

View from above orbital plane
View from above orbital plane
View from above satellite
View from above satellite

Ground track
Ground track

The orbit data is extracted from the following two-line orbital elements,

1 14208U 83075B   14242.15123865  .00001215  00000-0  83246-4 0  1002
2 14208 097.4195 276.3751 0043554 051.4559 309.0559 15.07142012693342
Epoch (UTC): 30 August 2014 03:37:47
Eccentricity: 0.0043554
inclination: 97.4195°
perigee height: 515 km
apogee height: 575 km
right ascension of ascending node: 276.3751°
argument of perigee: 51.4559°
revolutions per day: 15.07142012
mean anomaly at epoch: 309.0559°
orbit number at epoch: 69334

The dashed part of the orbit path shows where the satellite is in the earth's shadow,  

DLR